Flag for Germany Weather past 2 weeks in Gorleben, Lower Saxony, Germany

Now
61 °F

Overcast.


Feels Like: 61 °F
Forecast: 48 / 64 °F
Wind: 2 mph from Northwest

Location: Marnitz

Current Time: Aug 23, 2014 at 7:37:28 PM

Latest Report: Aug 23, 2014 at 7:00 PM


Visibility: 44 mi

Pressure: 29.85 "Hg

Humidity: 61%

Dew point: 47 °F

Location of GorlebenLocation

Historic Weather in Gorleben — Graph

°F

Gorleben temperature yesterday

Maximum temperature yesterday: 65 °F (at 6:00 PM)
Minimum temperature yesterday: 50 °F (at 5:00 AM)
Average temperature yesterday: 58 °F

Past Weeks' High & Low Weather Summary

 TemperatureHumidityPressure
High77 °F (Aug 8, 6:00 PM)96% (Aug 14, 4:00 AM)29.98 "Hg (Aug 14, 4:00 AM)
Low48 °F (Aug 21, 5:00 AM)40% (Aug 11, 5:00 PM)29.50 "Hg (Aug 18, 2:00 PM)
Average60 °F74%29.80 "Hg
* Reported Aug 8 6:00 PM — Aug 23 6:00 PM, Gorleben, Weather by CustomWeather, © 2014

Note: Actual official high and low records may vary slightly from our data, if they occured in-between our weather recording intervals... More about our weather records

Advertising

Gorleben weather history for previous 24 hours

 ConditionsComfort  
Time TempWeatherWind HumidityBarometerVisibility
6:00 PM
Aug 23
64 °FOvercast.2 mph51%29.84 "Hg43 mi
5:00 PM64 °FPartly sunny.3 mph50%29.84 "Hg43 mi
4:00 PM65 °FPartly sunny.3 mph48%29.84 "Hg34 mi
3:00 PM64 °FOvercast.5 mph45%29.84 "Hg28 mi
2:00 PM64 °FScattered clouds.5 mph50%29.85 "Hg43 mi
1:00 PM61 °FPartly sunny.5 mph58%29.85 "Hg43 mi
12:00 PM60 °FOvercast.5 mph65%29.85 "Hg31 mi
11:00 AM59 °FPartly sunny.5 mph66%29.85 "Hg22 mi
10:00 AM56 °FOvercast.3 mph77%29.85 "Hg19 mi
9:00 AM54 °FOvercast.3 mph84%29.84 "Hg16 mi
8:00 AM53 °FLow clouds.3 mph88%29.83 "Hg12 mi
7:00 AM51 °FLow clouds.3 mph90%29.82 "Hg10 mi
6:00 AM51 °FLow clouds.3 mph91%29.82 "Hg14 mi
5:00 AM52 °FLow clouds.3 mph90%29.82 "Hg16 mi
4:00 AM51 °FPassing clouds.3 mph91%29.82 "Hg17 mi
3:00 AM52 °FPassing clouds.3 mph91%29.82 "Hg12 mi
2:00 AM54 °FPassing clouds.3 mph88%29.82 "Hg15 mi
1:00 AM55 °FOvercast.5 mph83%29.82 "Hg25 mi
12:00 AM56 °FOvercast.3 mph83%29.81 "Hg28 mi
11:00 PM
Aug 22
58 °FDrizzle. Overcast.5 mph76%29.82 "Hg34 mi
10:00 PM58 °FOvercast.5 mph73%29.83 "Hg43 mi
9:00 PM60 °FLight rain. Overcast.5 mph64%29.83 "Hg43 mi
8:00 PM62 °FLight rain. Overcast.3 mph58%29.81 "Hg34 mi
7:00 PM63 °FOvercast.3 mph54%29.81 "Hg43 mi
Weather by CustomWeather, © 2014

See weather overviewHow to use our weather pages